Willimantic, CT

3:45 AM EDT on May 23, 2018 (GMT -0400)
Windham

Weather History for KIJD - October, 2011

Change the Weather History Date:

Thursday, October 13, 2011

  Actual Average Record
Temperature  
Mean Temperature 62 °F -  
Max Temperature 66 °F 62 °F 87 °F (1954)
Min Temperature 57 °F 38 °F 22 °F (1957)
Degree Days  
Heating Degree Days 4    
Growing Degree Days 12 (Base 50)    
Moisture  
Dew Point 58 °F    
Average Humidity 94    
Maximum Humidity 100    
Minimum Humidity 81    
Precipitation  
Precipitation 0.41 in - - ()
Sea Level Pressure  
Sea Level Pressure 29.86 in    
Wind  
Wind Speed 8 mph (NE)    
Max Wind Speed 12 mph    
Max Gust Speed 18 mph    
Visibility 8 miles    
Events Rain    
Averages and records for this station are not official NWS values.
T = Trace of Precipitation, MM = Missing Value Source: NWS Daily Summary

Daily Weather History Graph

Daily Weather History Graph

Search for Another Location

Airport or City:

Astronomy

Oct. 13, 2011 Rise Set
Actual Time 6:58 AM EDT 6:11 PM EDT
Civil Twilight 6:30 AM EDT 6:38 PM EDT
Nautical Twilight 5:58 AM EDT 7:11 PM EDT
Astronomical Twilight 5:25 AM EDT 7:43 PM EDT
Moon 6:42 PM EDT (10/13) 8:29 AM EDT (10/13)
Length of Visible Light 12h 08m
Length of Day
11h 12m
Full, 98% of the Moon is Illuminated
Oct 13
Full
Oct 19
Last Quarter
Oct 26
New
Nov 2
First Quarter
Nov 10
Full

Hourly Weather History & Observations

Time (EDT) Temp. Dew Point Humidity Pressure Visibility Wind Dir Wind Speed Gust Speed Precip Events Conditions
12:52 AM 57.0 °F 55.9 °F 96% 30.00 in 9.0 mi NE 6.9 mph - N/A   Overcast
1:52 AM 57.0 °F 55.9 °F 96% 29.97 in 6.0 mi NE 6.9 mph - 0.01 in   Overcast
2:52 AM 57.9 °F 55.9 °F 93% 29.94 in 7.0 mi NNE 5.8 mph - 0.01 in   Overcast
3:29 AM 57.2 °F 55.4 °F 94% 29.92 in 4.0 mi NNE 8.1 mph - 0.01 in Rain Light Rain
3:42 AM 57.2 °F 57.2 °F 100% 29.91 in 1.8 mi NNE 8.1 mph - 0.09 in Rain Heavy Rain
3:52 AM 57.9 °F 57.0 °F 97% 29.91 in 2.5 mi NNE 8.1 mph - 0.13 in Rain Rain
3:56 AM 57.2 °F 57.2 °F 100% 29.91 in 3.0 mi NE 8.1 mph - 0.01 in Rain Rain
4:04 AM 57.2 °F 57.2 °F 100% 29.91 in 3.0 mi NE 8.1 mph - 0.02 in Rain Light Rain
4:52 AM 57.9 °F 57.0 °F 97% 29.90 in 6.0 mi NNE 8.1 mph - 0.05 in Rain Light Rain
5:25 AM 57.2 °F 57.2 °F 100% 29.90 in 2.5 mi North 6.9 mph - 0.09 in Rain Rain
5:34 AM 57.2 °F 57.2 °F 100% 29.90 in 5.0 mi North 8.1 mph - 0.11 in Rain Light Rain
5:52 AM 57.9 °F 57.0 °F 97% 29.91 in 5.0 mi North 8.1 mph - 0.13 in Rain Light Rain
6:14 AM 57.2 °F 57.2 °F 100% 29.89 in 2.0 mi NE 10.4 mph - 0.06 in Rain Rain
6:25 AM 57.2 °F 57.2 °F 100% 29.88 in 4.0 mi NE 10.4 mph 18.4 mph 0.07 in Rain Light Rain
6:33 AM 57.2 °F 57.2 °F 100% 29.88 in 6.0 mi NE 11.5 mph 18.4 mph 0.08 in Rain Light Rain
6:52 AM 59.0 °F 57.0 °F 93% 29.87 in 9.0 mi NE 10.4 mph - 0.08 in   Overcast
7:04 AM 59.0 °F 57.2 °F 94% 29.87 in 10.0 mi NE 10.4 mph - N/A   Overcast
7:13 AM 59.0 °F 57.2 °F 94% 29.87 in 10.0 mi NE 8.1 mph - N/A   Overcast
7:45 AM 59.0 °F 57.2 °F 94% 29.87 in 10.0 mi NNE 9.2 mph 17.3 mph N/A   Overcast
7:52 AM 59.0 °F 57.0 °F 93% 29.86 in 10.0 mi NE 9.2 mph - N/A   Overcast
8:52 AM 60.1 °F 57.9 °F 93% 29.86 in 10.0 mi NE 8.1 mph - 0.00 in   Overcast
9:52 AM 62.1 °F 59.0 °F 90% 29.85 in 10.0 mi NE 9.2 mph - N/A   Overcast
10:52 AM 63.0 °F 60.1 °F 90% 29.84 in 10.0 mi NNE 9.2 mph - N/A   Overcast
11:10 AM 62.6 °F 60.8 °F 94% 29.83 in 10.0 mi NE 11.5 mph - N/A   Overcast
11:52 AM 64.0 °F 60.1 °F 87% 29.83 in 10.0 mi NE 8.1 mph - N/A   Overcast
12:37 PM 64.4 °F 60.8 °F 88% 29.81 in 10.0 mi NE 9.2 mph - N/A   Overcast
12:52 PM 66.0 °F 60.1 °F 81% 29.81 in 10.0 mi NE 9.2 mph - N/A   Overcast
1:52 PM 64.9 °F 60.1 °F 84% 29.79 in 10.0 mi NNE 9.2 mph - N/A   Overcast
2:52 PM 64.9 °F 60.1 °F 84% 29.78 in 10.0 mi NNE 10.4 mph - N/A   Overcast
4:52 PM 64.0 °F 60.1 °F 87% 29.78 in 10.0 mi NE 8.1 mph - N/A   Overcast
5:43 PM 62.6 °F 60.8 °F 94% 29.78 in 10.0 mi NE 5.8 mph - N/A   Overcast
5:52 PM 63.0 °F 60.1 °F 90% 29.78 in 10.0 mi East 5.8 mph - N/A   Overcast
6:52 PM 62.1 °F 60.1 °F 93% 29.79 in 10.0 mi NNE 5.8 mph - N/A   Overcast
7:52 PM 61.0 °F 61.0 °F 100% 29.79 in 5.0 mi NE 4.6 mph - N/A   Overcast
8:52 PM 62.1 °F 61.0 °F 96% 29.81 in 9.0 mi Calm Calm - N/A   Overcast
9:52 PM 62.1 °F 61.0 °F 96% 29.81 in 9.0 mi Calm Calm - N/A   Overcast
10:52 PM 62.1 °F 60.1 °F 93% 29.79 in 10.0 mi Calm Calm - N/A   Overcast
11:52 PM 62.1 °F 60.1 °F 93% 29.77 in 8.0 mi NE 3.5 mph - N/A   Overcast